owner,sensor,date,latitude,longitude,vertical_datum,wind_speed,wind_to_direction,wind_speed_of_gust,qcFlag 
LOOP,urn:ioos:station:wmo:lopl1:1,2012-12-01T00:08:00Z,28.8850,-90.0250,10.0,5.7,53.0,8.1,'11111222,11111222,11111222' 
LOOP,urn:ioos:station:wmo:lopl1:1,2012-12-01T00:23:00Z,28.8850,-90.0250,10.0,5.7,47.0,8.3,'11111222,11111222,11111222' 
LOOP,urn:ioos:station:wmo:lopl1:1,2012-12-01T00:38:00Z,28.8850,-90.0250,10.0,5.8,55.0,8.4,'11111222,11111222,11111222' 
LOOP,urn:ioos:station:wmo:lopl1:1,2012-12-01T00:53:00Z,28.8850,-90.0250,10.0,6.4,59.0,8.0,'11111222,11111222,11111222' 
LOOP,urn:ioos:station:wmo:lopl1:1,2012-12-01T01:08:00Z,28.8850,-90.0250,10.0,5.9,56.0,8.1,'11111222,11111222,11111222' 
LOOP,urn:ioos:station:wmo:lopl1:1,2012-12-01T01:23:00Z,28.8850,-90.0250,10.0,6.5,64.0,8.4,'11111222,11111222,11111222' 
LOOP,urn:ioos:station:wmo:lopl1:1,2012-12-01T01:38:00Z,28.8850,-90.0250,10.0,7.4,65.0,8.5,'11111222,11111222,11111222' 
LOOP,urn:ioos:station:wmo:lopl1:1,2012-12-01T01:58:00Z,28.8850,-90.0250,10.0,7.6,64.0,8.7,'11111222,11111222,11111222' 
LOOP,urn:ioos:station:wmo:lopl1:1,2012-12-01T02:13:00Z,28.8850,-90.0250,10.0,7.4,69.0,8.7,'11111222,11111222,11111222' 
LOOP,urn:ioos:station:wmo:lopl1:1,2012-12-01T02:28:00Z,28.8850,-90.0250,10.0,7.5,65.0,8.9,'11111222,11111222,11111222' 
LOOP,urn:ioos:station:wmo:lopl1:1,2012-12-01T02:43:00Z,28.8850,-90.0250,10.0,7.4,71.0,8.3,'11111222,11111222,11111222' 
LOOP,urn:ioos:station:wmo:lopl1:1,2012-12-01T02:58:00Z,28.8850,-90.0250,10.0,7.1,66.0,8.2,'11111222,11111222,11111222' 
LOOP,urn:ioos:station:wmo:lopl1:1,2012-12-01T03:13:00Z,28.8850,-90.0250,10.0,7.0,66.0,7.7,'11111222,11111222,11111222' 
LOOP,urn:ioos:station:wmo:lopl1:1,2012-12-01T03:28:00Z,28.8850,-90.0250,10.0,7.4,66.0,8.4,'11111222,11111222,11111222' 
LOOP,urn:ioos:station:wmo:lopl1:1,2012-12-01T03:43:00Z,28.8850,-90.0250,10.0,7.2,70.0,8.3,'11111222,11111222,11111222' 
LOOP,urn:ioos:station:wmo:lopl1:1,2012-12-01T03:58:00Z,28.8850,-90.0250,10.0,7.2,74.0,8.3,'11111222,11111222,11111222' 
LOOP,urn:ioos:station:wmo:lopl1:1,2012-12-01T04:13:00Z,28.8850,-90.0250,10.0,7.1,78.0,8.5,'11111222,11111222,11111222' 
LOOP,urn:ioos:station:wmo:lopl1:1,2012-12-01T04:28:00Z,28.8850,-90.0250,10.0,7.2,71.0,8.4,'11111222,11111222,11111222' 
LOOP,urn:ioos:station:wmo:lopl1:1,2012-12-01T04:43:00Z,28.8850,-90.0250,10.0,7.5,73.0,8.8,'11111222,11111222,11111222' 
LOOP,urn:ioos:station:wmo:lopl1:1,2012-12-01T04:58:00Z,28.8850,-90.0250,10.0,7.4,76.0,8.8,'11111222,11111222,11111222' 
LOOP,urn:ioos:station:wmo:lopl1:1,2012-12-01T05:13:00Z,28.8850,-90.0250,10.0,7.5,76.0,9.3,'11111222,11111222,11111222' 
LOOP,urn:ioos:station:wmo:lopl1:1,2012-12-01T05:28:00Z,28.8850,-90.0250,10.0,8.2,86.0,9.2,'11111222,11111222,11111222' 
LOOP,urn:ioos:station:wmo:lopl1:1,2012-12-01T05:43:00Z,28.8850,-90.0250,10.0,8.6,80.0,9.7,'11111222,11111222,11111222' 
LOOP,urn:ioos:station:wmo:lopl1:1,2012-12-01T05:58:00Z,28.8850,-90.0250,10.0,8.2,84.0,9.3,'11111222,11111222,11111222' 
LOOP,urn:ioos:station:wmo:lopl1:1,2012-12-01T06:13:00Z,28.8850,-90.0250,10.0,8.2,85.0,9.3,'11111222,11111222,11111222' 
LOOP,urn:ioos:station:wmo:lopl1:1,2012-12-01T06:28:00Z,28.8850,-90.0250,10.0,8.5,84.0,9.3,'11111222,11111222,11111222' 
LOOP,urn:ioos:station:wmo:lopl1:1,2012-12-01T06:43:00Z,28.8850,-90.0250,10.0,8.0,82.0,9.3,'11111222,11111222,11111222' 
LOOP,urn:ioos:station:wmo:lopl1:1,2012-12-01T06:58:00Z,28.8850,-90.0250,10.0,8.7,88.0,9.6,'11111222,11111222,11111222' 
LOOP,urn:ioos:station:wmo:lopl1:1,2012-12-01T07:13:00Z,28.8850,-90.0250,10.0,8.1,85.0,8.9,'11111222,11111222,11111222' 
LOOP,urn:ioos:station:wmo:lopl1:1,2012-12-01T07:33:00Z,28.8850,-90.0250,10.0,8.2,89.0,8.8,'11111222,11111222,11111222' 
LOOP,urn:ioos:station:wmo:lopl1:1,2012-12-01T07:48:00Z,28.8850,-90.0250,10.0,8.1,87.0,9.0,'11111222,11111222,11111222' 
LOOP,urn:ioos:station:wmo:lopl1:1,2012-12-01T08:03:00Z,28.8850,-90.0250,10.0,8.1,88.0,9.1,'11111222,11111222,11111222' 
LOOP,urn:ioos:station:wmo:lopl1:1,2012-12-01T08:18:00Z,28.8850,-90.0250,10.0,7.6,91.0,8.7,'11111222,11111222,11111222' 
LOOP,urn:ioos:station:wmo:lopl1:1,2012-12-01T08:33:00Z,28.8850,-90.0250,10.0,7.8,83.0,8.7,'11111222,11111222,11111222' 
LOOP,urn:ioos:station:wmo:lopl1:1,2012-12-01T08:48:00Z,28.8850,-90.0250,10.0,7.7,86.0,8.8,'11111222,11111222,11111222' 
LOOP,urn:ioos:station:wmo:lopl1:1,2012-12-01T09:03:00Z,28.8850,-90.0250,10.0,6.7,83.0,8.2,'11111222,11111222,11111222' 
LOOP,urn:ioos:station:wmo:lopl1:1,2012-12-01T09:18:00Z,28.8850,-90.0250,10.0,6.6,79.0,7.6,'11111222,11111222,11111222' 
LOOP,urn:ioos:station:wmo:lopl1:1,2012-12-01T09:33:00Z,28.8850,-90.0250,10.0,7.1,85.0,7.9,'11111222,11111222,11111222' 
LOOP,urn:ioos:station:wmo:lopl1:1,2012-12-01T09:48:00Z,28.8850,-90.0250,10.0,6.6,80.0,7.4,'11111222,11111222,11111222' 
LOOP,urn:ioos:station:wmo:lopl1:1,2012-12-01T10:03:00Z,28.8850,-90.0250,10.0,6.8,80.0,7.8,'11111222,11111222,11111222' 
LOOP,urn:ioos:station:wmo:lopl1:1,2012-12-01T10:18:00Z,28.8850,-90.0250,10.0,6.9,81.0,7.6,'11111222,11111222,11111222' 
LOOP,urn:ioos:station:wmo:lopl1:1,2012-12-01T10:33:00Z,28.8850,-90.0250,10.0,6.8,84.0,7.6,'11111222,11111222,11111222' 
LOOP,urn:ioos:station:wmo:lopl1:1,2012-12-01T10:48:00Z,28.8850,-90.0250,10.0,6.8,86.0,7.7,'11111222,11111222,11111222' 
LOOP,urn:ioos:station:wmo:lopl1:1,2012-12-01T11:03:00Z,28.8850,-90.0250,10.0,6.9,87.0,7.8,'11111222,11111222,11111222' 
LOOP,urn:ioos:station:wmo:lopl1:1,2012-12-01T11:18:00Z,28.8850,-90.0250,10.0,6.3,85.0,7.2,'11111222,11111222,11111222' 
LOOP,urn:ioos:station:wmo:lopl1:1,2012-12-01T11:33:00Z,28.8850,-90.0250,10.0,6.4,85.0,7.0,'11111222,11111222,11111222' 
LOOP,urn:ioos:station:wmo:lopl1:1,2012-12-01T11:48:00Z,28.8850,-90.0250,10.0,6.8,90.0,7.5,'11111222,11111222,11111222' 
LOOP,urn:ioos:station:wmo:lopl1:1,2012-12-01T12:03:00Z,28.8850,-90.0250,10.0,5.8,88.0,6.9,'11111222,11111222,11111222' 
LOOP,urn:ioos:station:wmo:lopl1:1,2012-12-01T12:18:00Z,28.8850,-90.0250,10.0,5.4,82.0,6.1,'11111222,11111222,11111222' 
LOOP,urn:ioos:station:wmo:lopl1:1,2012-12-01T12:33:00Z,28.8850,-90.0250,10.0,5.6,81.0,6.3,'11111222,11111222,11111222' 
LOOP,urn:ioos:station:wmo:lopl1:1,2012-12-01T12:48:00Z,28.8850,-90.0250,10.0,5.5,86.0,6.2,'11111222,11111222,11111222' 
LOOP,urn:ioos:station:wmo:lopl1:1,2012-12-01T13:08:00Z,28.8850,-90.0250,10.0,6.0,94.0,6.8,'11111222,11111222,11111222' 
LOOP,urn:ioos:station:wmo:lopl1:1,2012-12-01T13:23:00Z,28.8850,-90.0250,10.0,5.3,90.0,5.9,'11111222,11111222,11111222' 
LOOP,urn:ioos:station:wmo:lopl1:1,2012-12-01T13:38:00Z,28.8850,-90.0250,10.0,5.3,87.0,5.9,'11111222,11111222,11111222' 
LOOP,urn:ioos:station:wmo:lopl1:1,2012-12-01T13:53:00Z,28.8850,-90.0250,10.0,5.2,85.0,5.9,'11111222,11111222,11111222' 
LOOP,urn:ioos:station:wmo:lopl1:1,2012-12-01T14:08:00Z,28.8850,-90.0250,10.0,5.1,76.0,5.7,'11111222,11111222,11111222' 
LOOP,urn:ioos:station:wmo:lopl1:1,2012-12-01T14:23:00Z,28.8850,-90.0250,10.0,4.9,75.0,5.6,'11111222,11111222,11111222' 
LOOP,urn:ioos:station:wmo:lopl1:1,2012-12-01T14:38:00Z,28.8850,-90.0250,10.0,4.6,81.0,5.6,'11111222,11111222,11111222' 
LOOP,urn:ioos:station:wmo:lopl1:1,2012-12-01T14:53:00Z,28.8850,-90.0250,10.0,4.8,79.0,5.8,'11111222,11111222,11111222' 
LOOP,urn:ioos:station:wmo:lopl1:1,2012-12-01T15:08:00Z,28.8850,-90.0250,10.0,4.9,80.0,5.7,'11111222,11111222,11111222' 
LOOP,urn:ioos:station:wmo:lopl1:1,2012-12-01T15:23:00Z,28.8850,-90.0250,10.0,5.1,87.0,5.7,'11111222,11111222,11111222' 
LOOP,urn:ioos:station:wmo:lopl1:1,2012-12-01T15:38:00Z,28.8850,-90.0250,10.0,4.9,90.0,5.5,'11111222,11111222,11111222' 
LOOP,urn:ioos:station:wmo:lopl1:1,2012-12-01T15:53:00Z,28.8850,-90.0250,10.0,4.7,87.0,5.2,'11111222,11111222,11111222' 
LOOP,urn:ioos:station:wmo:lopl1:1,2012-12-01T16:08:00Z,28.8850,-90.0250,10.0,4.4,95.0,5.0,'11111222,11111222,11111222' 
LOOP,urn:ioos:station:wmo:lopl1:1,2012-12-01T16:23:00Z,28.8850,-90.0250,10.0,4.6,102.0,5.2,'11111222,11111222,11111222' 
LOOP,urn:ioos:station:wmo:lopl1:1,2012-12-01T16:38:00Z,28.8850,-90.0250,10.0,4.4,107.0,5.3,'11111222,11111222,11111222' 
LOOP,urn:ioos:station:wmo:lopl1:1,2012-12-01T16:53:00Z,28.8850,-90.0250,10.0,4.7,113.0,5.4,'11111222,11111222,11111222' 
LOOP,urn:ioos:station:wmo:lopl1:1,2012-12-01T17:08:00Z,28.8850,-90.0250,10.0,4.9,132.0,6.2,'11111222,11111222,11111222' 
LOOP,urn:ioos:station:wmo:lopl1:1,2012-12-01T17:23:00Z,28.8850,-90.0250,10.0,6.5,146.0,7.1,'11111222,11111222,11111222' 
LOOP,urn:ioos:station:wmo:lopl1:1,2012-12-01T17:43:00Z,28.8850,-90.0250,10.0,6.4,164.0,7.1,'11111222,11111222,11111222' 
LOOP,urn:ioos:station:wmo:lopl1:1,2012-12-01T17:58:00Z,28.8850,-90.0250,10.0,6.3,158.0,7.3,'11111222,11111222,11111222' 
LOOP,urn:ioos:station:wmo:lopl1:1,2012-12-01T18:13:00Z,28.8850,-90.0250,10.0,5.0,159.0,5.5,'11111222,11111222,11111222' 
LOOP,urn:ioos:station:wmo:lopl1:1,2012-12-01T18:28:00Z,28.8850,-90.0250,10.0,5.2,146.0,6.3,'11111222,11111222,11111222' 
LOOP,urn:ioos:station:wmo:lopl1:1,2012-12-01T18:43:00Z,28.8850,-90.0250,10.0,5.3,116.0,6.2,'11111222,11111222,11111222' 
LOOP,urn:ioos:station:wmo:lopl1:1,2012-12-01T18:58:00Z,28.8850,-90.0250,10.0,6.7,133.0,7.4,'11111222,11111222,11111222' 
LOOP,urn:ioos:station:wmo:lopl1:1,2012-12-01T19:13:00Z,28.8850,-90.0250,10.0,7.3,132.0,8.2,'11111222,11111222,11111222' 
LOOP,urn:ioos:station:wmo:lopl1:1,2012-12-01T19:28:00Z,28.8850,-90.0250,10.0,7.4,125.0,8.1,'11111222,11111222,11111222' 
LOOP,urn:ioos:station:wmo:lopl1:1,2012-12-01T19:43:00Z,28.8850,-90.0250,10.0,8.0,130.0,8.5,'11111222,11111222,11111222' 
LOOP,urn:ioos:station:wmo:lopl1:1,2012-12-01T19:58:00Z,28.8850,-90.0250,10.0,7.7,122.0,8.4,'11111222,11111222,11111222' 
LOOP,urn:ioos:station:wmo:lopl1:1,2012-12-01T20:13:00Z,28.8850,-90.0250,10.0,7.7,131.0,8.5,'11111222,11111222,11111222' 
LOOP,urn:ioos:station:wmo:lopl1:1,2012-12-01T20:28:00Z,28.8850,-90.0250,10.0,7.6,133.0,9.1,'11111222,11111222,11111222' 
LOOP,urn:ioos:station:wmo:lopl1:1,2012-12-01T20:43:00Z,28.8850,-90.0250,10.0,7.4,130.0,8.7,'11111222,11111222,11111222' 
LOOP,urn:ioos:station:wmo:lopl1:1,2012-12-01T20:58:00Z,28.8850,-90.0250,10.0,7.7,138.0,8.7,'11111222,11111222,11111222' 
LOOP,urn:ioos:station:wmo:lopl1:1,2012-12-01T21:13:00Z,28.8850,-90.0250,10.0,6.7,133.0,7.3,'11111222,11111222,11111222' 
LOOP,urn:ioos:station:wmo:lopl1:1,2012-12-01T21:28:00Z,28.8850,-90.0250,10.0,6.7,128.0,7.4,'11111222,11111222,11111222' 
LOOP,urn:ioos:station:wmo:lopl1:1,2012-12-01T21:43:00Z,28.8850,-90.0250,10.0,6.8,120.0,7.5,'11111222,11111222,11111222' 
LOOP,urn:ioos:station:wmo:lopl1:1,2012-12-01T21:58:00Z,28.8850,-90.0250,10.0,6.5,118.0,7.1,'11111222,11111222,11111222' 
LOOP,urn:ioos:station:wmo:lopl1:1,2012-12-01T22:18:00Z,28.8850,-90.0250,10.0,6.4,120.0,7.0,'11111222,11111222,11111222' 
LOOP,urn:ioos:station:wmo:lopl1:1,2012-12-01T22:33:00Z,28.8850,-90.0250,10.0,6.4,125.0,7.2,'11111222,11111222,11111222' 
LOOP,urn:ioos:station:wmo:lopl1:1,2012-12-01T22:48:00Z,28.8850,-90.0250,10.0,6.2,124.0,6.8,'11111222,11111222,11111222' 
LOOP,urn:ioos:station:wmo:lopl1:1,2012-12-01T23:03:00Z,28.8850,-90.0250,10.0,6.3,127.0,7.0,'11111222,11111222,11111222' 
LOOP,urn:ioos:station:wmo:lopl1:1,2012-12-01T23:18:00Z,28.8850,-90.0250,10.0,6.5,133.0,7.1,'11111222,11111222,11111222' 
LOOP,urn:ioos:station:wmo:lopl1:1,2012-12-01T23:33:00Z,28.8850,-90.0250,10.0,6.9,127.0,7.5,'11111222,11111222,11111222' 
LOOP,urn:ioos:station:wmo:lopl1:1,2012-12-01T23:48:00Z,28.8850,-90.0250,10.0,6.9,125.0,7.5,'11111222,11111222,11111222' 
LOOP,urn:ioos:station:wmo:lopl1:1,2012-12-02T00:03:00Z,28.8850,-90.0250,10.0,6.4,132.0,7.3,'11111222,11111222,11111222' 
LOOP,urn:ioos:station:wmo:lopl1:1,2012-12-02T00:18:00Z,28.8850,-90.0250,10.0,6.8,125.0,7.6,'11111222,11111222,11111222' 
LOOP,urn:ioos:station:wmo:lopl1:1,2012-12-02T00:33:00Z,28.8850,-90.0250,10.0,7.5,131.0,8.3,'11111222,11111222,11111222' 
LOOP,urn:ioos:station:wmo:lopl1:1,2012-12-02T00:48:00Z,28.8850,-90.0250,10.0,7.2,126.0,8.1,'11111222,11111222,11111222' 
LOOP,urn:ioos:station:wmo:lopl1:1,2012-12-02T01:03:00Z,28.8850,-90.0250,10.0,7.6,131.0,8.5,'11111222,11111222,11111222' 
LOOP,urn:ioos:station:wmo:lopl1:1,2012-12-02T01:18:00Z,28.8850,-90.0250,10.0,7.6,132.0,8.8,'11111222,11111222,11111222' 
LOOP,urn:ioos:station:wmo:lopl1:1,2012-12-02T01:33:00Z,28.8850,-90.0250,10.0,8.0,134.0,8.8,'11111222,11111222,11111222' 
LOOP,urn:ioos:station:wmo:lopl1:1,2012-12-02T01:48:00Z,28.8850,-90.0250,10.0,7.8,128.0,8.5,'11111222,11111222,11111222' 
LOOP,urn:ioos:station:wmo:lopl1:1,2012-12-02T02:03:00Z,28.8850,-90.0250,10.0,8.3,127.0,9.1,'11111222,11111222,11111222' 
LOOP,urn:ioos:station:wmo:lopl1:1,2012-12-02T02:18:00Z,28.8850,-90.0250,10.0,8.2,131.0,9.1,'11111222,11111222,11111222' 
LOOP,urn:ioos:station:wmo:lopl1:1,2012-12-02T02:33:00Z,28.8850,-90.0250,10.0,8.1,133.0,8.9,'11111222,11111222,11111222' 
LOOP,urn:ioos:station:wmo:lopl1:1,2012-12-02T02:48:00Z,28.8850,-90.0250,10.0,7.7,124.0,8.6,'11111222,11111222,11111222' 
LOOP,urn:ioos:station:wmo:lopl1:1,2012-12-02T03:08:00Z,28.8850,-90.0250,10.0,8.0,138.0,8.6,'11111222,11111222,11111222' 
LOOP,urn:ioos:station:wmo:lopl1:1,2012-12-02T03:23:00Z,28.8850,-90.0250,10.0,8.0,132.0,8.8,'11111222,11111222,11111222' 
LOOP,urn:ioos:station:wmo:lopl1:1,2012-12-02T03:38:00Z,28.8850,-90.0250,10.0,7.3,129.0,8.3,'11111222,11111222,11111222' 
LOOP,urn:ioos:station:wmo:lopl1:1,2012-12-02T03:53:00Z,28.8850,-90.0250,10.0,7.0,126.0,7.9,'11111222,11111222,11111222' 
LOOP,urn:ioos:station:wmo:lopl1:1,2012-12-02T04:08:00Z,28.8850,-90.0250,10.0,7.4,129.0,8.2,'11111222,11111222,11111222' 
LOOP,urn:ioos:station:wmo:lopl1:1,2012-12-02T04:23:00Z,28.8850,-90.0250,10.0,7.8,132.0,8.7,'11111222,11111222,11111222' 
LOOP,urn:ioos:station:wmo:lopl1:1,2012-12-02T04:38:00Z,28.8850,-90.0250,10.0,7.7,128.0,8.6,'11111222,11111222,11111222' 
LOOP,urn:ioos:station:wmo:lopl1:1,2012-12-02T04:53:00Z,28.8850,-90.0250,10.0,7.9,124.0,8.5,'11111222,11111222,11111222' 
LOOP,urn:ioos:station:wmo:lopl1:1,2012-12-02T05:08:00Z,28.8850,-90.0250,10.0,7.4,127.0,8.7,'11111222,11111222,11111222' 
LOOP,urn:ioos:station:wmo:lopl1:1,2012-12-02T05:23:00Z,28.8850,-90.0250,10.0,7.7,134.0,8.9,'11111222,11111222,11111222' 
LOOP,urn:ioos:station:wmo:lopl1:1,2012-12-02T05:38:00Z,28.8850,-90.0250,10.0,8.1,138.0,8.8,'11111222,11111222,11111222' 
LOOP,urn:ioos:station:wmo:lopl1:1,2012-12-02T05:53:00Z,28.8850,-90.0250,10.0,7.8,137.0,8.6,'11111222,11111222,11111222' 
LOOP,urn:ioos:station:wmo:lopl1:1,2012-12-02T06:08:00Z,28.8850,-90.0250,10.0,8.0,137.0,8.7,'11111222,11111222,11111222' 
LOOP,urn:ioos:station:wmo:lopl1:1,2012-12-02T06:23:00Z,28.8850,-90.0250,10.0,8.3,140.0,9.4,'11111222,11111222,11111222' 
LOOP,urn:ioos:station:wmo:lopl1:1,2012-12-02T06:38:00Z,28.8850,-90.0250,10.0,8.3,137.0,9.4,'11111222,11111222,11111222' 
LOOP,urn:ioos:station:wmo:lopl1:1,2012-12-02T06:53:00Z,28.8850,-90.0250,10.0,8.1,135.0,9.1,'11111222,11111222,11111222' 
LOOP,urn:ioos:station:wmo:lopl1:1,2012-12-02T07:08:00Z,28.8850,-90.0250,10.0,7.8,139.0,8.6,'11111222,11111222,11111222' 
LOOP,urn:ioos:station:wmo:lopl1:1,2012-12-02T07:23:00Z,28.8850,-90.0250,10.0,8.2,142.0,9.4,'11111222,11111222,11111222' 
LOOP,urn:ioos:station:wmo:lopl1:1,2012-12-02T07:38:00Z,28.8850,-90.0250,10.0,7.7,143.0,8.7,'11111222,11111222,11111222' 
LOOP,urn:ioos:station:wmo:lopl1:1,2012-12-02T07:53:00Z,28.8850,-90.0250,10.0,8.2,136.0,9.3,'11111222,11111222,11111222' 
LOOP,urn:ioos:station:wmo:lopl1:1,2012-12-02T08:08:00Z,28.8850,-90.0250,10.0,8.0,144.0,9.6,'11111222,11111222,11111222' 
LOOP,urn:ioos:station:wmo:lopl1:1,2012-12-02T08:28:00Z,28.8850,-90.0250,10.0,8.0,151.0,9.2,'11111222,11111222,11111222' 
LOOP,urn:ioos:station:wmo:lopl1:1,2012-12-02T08:43:00Z,28.8850,-90.0250,10.0,7.5,141.0,8.6,'11111222,11111222,11111222' 
LOOP,urn:ioos:station:wmo:lopl1:1,2012-12-02T08:58:00Z,28.8850,-90.0250,10.0,7.5,145.0,8.5,'11111222,11111222,11111222' 
LOOP,urn:ioos:station:wmo:lopl1:1,2012-12-02T09:13:00Z,28.8850,-90.0250,10.0,7.0,155.0,8.4,'11111222,11111222,11111222' 
LOOP,urn:ioos:station:wmo:lopl1:1,2012-12-02T09:28:00Z,28.8850,-90.0250,10.0,6.7,150.0,7.9,'11111222,11111222,11111222' 
LOOP,urn:ioos:station:wmo:lopl1:1,2012-12-02T09:43:00Z,28.8850,-90.0250,10.0,7.2,154.0,8.0,'11111222,11111222,11111222' 
LOOP,urn:ioos:station:wmo:lopl1:1,2012-12-02T09:58:00Z,28.8850,-90.0250,10.0,6.4,155.0,7.3,'11111222,11111222,11111222' 
LOOP,urn:ioos:station:wmo:lopl1:1,2012-12-02T10:13:00Z,28.8850,-90.0250,10.0,6.5,156.0,7.6,'11111222,11111222,11111222' 
LOOP,urn:ioos:station:wmo:lopl1:1,2012-12-02T10:28:00Z,28.8850,-90.0250,10.0,5.9,163.0,6.7,'11111222,11111222,11111222' 
LOOP,urn:ioos:station:wmo:lopl1:1,2012-12-02T10:43:00Z,28.8850,-90.0250,10.0,6.1,157.0,6.7,'11111222,11111222,11111222' 
LOOP,urn:ioos:station:wmo:lopl1:1,2012-12-02T10:58:00Z,28.8850,-90.0250,10.0,6.3,158.0,7.3,'11111222,11111222,11111222' 
LOOP,urn:ioos:station:wmo:lopl1:1,2012-12-02T11:18:00Z,28.8850,-90.0250,10.0,5.7,155.0,6.7,'11111222,11111222,11111222' 
LOOP,urn:ioos:station:wmo:lopl1:1,2012-12-02T11:33:00Z,28.8850,-90.0250,10.0,5.5,143.0,6.6,'11111222,11111222,11111222' 
LOOP,urn:ioos:station:wmo:lopl1:1,2012-12-02T11:48:00Z,28.8850,-90.0250,10.0,5.1,150.0,6.0,'11111222,11111222,11111222' 
LOOP,urn:ioos:station:wmo:lopl1:1,2012-12-02T12:03:00Z,28.8850,-90.0250,10.0,4.0,146.0,4.4,'11111222,11111222,11111222' 
LOOP,urn:ioos:station:wmo:lopl1:1,2012-12-02T12:18:00Z,28.8850,-90.0250,10.0,3.5,145.0,4.0,'11111222,11111222,11111222' 
LOOP,urn:ioos:station:wmo:lopl1:1,2012-12-02T12:33:00Z,28.8850,-90.0250,10.0,3.1,151.0,3.5,'11111222,11111222,11111222' 
LOOP,urn:ioos:station:wmo:lopl1:1,2012-12-02T12:48:00Z,28.8850,-90.0250,10.0,3.3,130.0,3.8,'11111222,11111222,11111222' 
LOOP,urn:ioos:station:wmo:lopl1:1,2012-12-02T13:03:00Z,28.8850,-90.0250,10.0,4.3,107.0,5.0,'11111222,11111222,11111222' 
LOOP,urn:ioos:station:wmo:lopl1:1,2012-12-02T13:18:00Z,28.8850,-90.0250,10.0,5.7,136.0,6.6,'11111222,11111222,11111222' 
LOOP,urn:ioos:station:wmo:lopl1:1,2012-12-02T13:33:00Z,28.8850,-90.0250,10.0,5.7,131.0,6.5,'11111222,11111222,11111222' 
LOOP,urn:ioos:station:wmo:lopl1:1,2012-12-02T13:48:00Z,28.8850,-90.0250,10.0,6.8,129.0,7.9,'11111222,11111222,11111222' 
LOOP,urn:ioos:station:wmo:lopl1:1,2012-12-02T14:03:00Z,28.8850,-90.0250,10.0,5.9,119.0,6.9,'11111222,11111222,11111222' 
LOOP,urn:ioos:station:wmo:lopl1:1,2012-12-02T14:18:00Z,28.8850,-90.0250,10.0,6.1,127.0,7.1,'11111222,11111222,11111222' 
LOOP,urn:ioos:station:wmo:lopl1:1,2012-12-02T14:33:00Z,28.8850,-90.0250,10.0,7.0,135.0,8.2,'11111222,11111222,11111222' 
LOOP,urn:ioos:station:wmo:lopl1:1,2012-12-02T14:48:00Z,28.8850,-90.0250,10.0,6.7,132.0,7.3,'11111222,11111222,11111222' 
LOOP,urn:ioos:station:wmo:lopl1:1,2012-12-02T15:03:00Z,28.8850,-90.0250,10.0,6.4,137.0,6.9,'11111222,11111222,11111222' 
LOOP,urn:ioos:station:wmo:lopl1:1,2012-12-02T15:18:00Z,28.8850,-90.0250,10.0,6.9,125.0,7.7,'11111222,11111222,11111222' 
LOOP,urn:ioos:station:wmo:lopl1:1,2012-12-02T15:33:00Z,28.8850,-90.0250,10.0,6.8,130.0,7.6,'11111222,11111222,11111222' 
LOOP,urn:ioos:station:wmo:lopl1:1,2012-12-02T15:48:00Z,28.8850,-90.0250,10.0,7.1,132.0,7.8,'11111222,11111222,11111222' 
LOOP,urn:ioos:station:wmo:lopl1:1,2012-12-02T16:03:00Z,28.8850,-90.0250,10.0,6.2,131.0,7.2,'11111222,11111222,11111222' 
LOOP,urn:ioos:station:wmo:lopl1:1,2012-12-02T16:18:00Z,28.8850,-90.0250,10.0,6.3,133.0,6.9,'11111222,11111222,11111222' 
LOOP,urn:ioos:station:wmo:lopl1:1,2012-12-02T16:33:00Z,28.8850,-90.0250,10.0,6.5,131.0,6.9,'11111222,11111222,11111222' 
LOOP,urn:ioos:station:wmo:lopl1:1,2012-12-02T16:48:00Z,28.8850,-90.0250,10.0,6.0,131.0,6.6,'11111222,11111222,11111222' 
LOOP,urn:ioos:station:wmo:lopl1:1,2012-12-02T17:03:00Z,28.8850,-90.0250,10.0,6.5,136.0,7.4,'11111222,11111222,11111222' 
LOOP,urn:ioos:station:wmo:lopl1:1,2012-12-02T17:18:00Z,28.8850,-90.0250,10.0,6.3,128.0,7.1,'11111222,11111222,11111222' 
LOOP,urn:ioos:station:wmo:lopl1:1,2012-12-02T17:33:00Z,28.8850,-90.0250,10.0,6.4,129.0,7.2,'11111222,11111222,11111222' 
LOOP,urn:ioos:station:wmo:lopl1:1,2012-12-02T17:48:00Z,28.8850,-90.0250,10.0,7.2,135.0,7.9,'11111222,11111222,11111222' 
LOOP,urn:ioos:station:wmo:lopl1:1,2012-12-02T18:03:00Z,28.8850,-90.0250,10.0,6.4,141.0,7.5,'11111222,11111222,11111222' 
LOOP,urn:ioos:station:wmo:lopl1:1,2012-12-02T18:18:00Z,28.8850,-90.0250,10.0,6.4,134.0,7.0,'11111222,11111222,11111222' 
LOOP,urn:ioos:station:wmo:lopl1:1,2012-12-02T18:33:00Z,28.8850,-90.0250,10.0,6.4,135.0,7.2,'11111222,11111222,11111222' 
LOOP,urn:ioos:station:wmo:lopl1:1,2012-12-02T18:48:00Z,28.8850,-90.0250,10.0,6.1,132.0,6.7,'11111222,11111222,11111222' 
LOOP,urn:ioos:station:wmo:lopl1:1,2012-12-02T19:03:00Z,28.8850,-90.0250,10.0,6.2,133.0,6.9,'11111222,11111222,11111222' 
LOOP,urn:ioos:station:wmo:lopl1:1,2012-12-02T19:23:00Z,28.8850,-90.0250,10.0,5.9,129.0,6.8,'11111222,11111222,11111222' 
LOOP,urn:ioos:station:wmo:lopl1:1,2012-12-02T19:38:00Z,28.8850,-90.0250,10.0,5.7,124.0,6.4,'11111222,11111222,11111222' 
LOOP,urn:ioos:station:wmo:lopl1:1,2012-12-02T19:53:00Z,28.8850,-90.0250,10.0,5.8,128.0,6.5,'11111222,11111222,11111222' 
LOOP,urn:ioos:station:wmo:lopl1:1,2012-12-02T20:08:00Z,28.8850,-90.0250,10.0,6.1,128.0,6.5,'11111222,11111222,11111222' 
LOOP,urn:ioos:station:wmo:lopl1:1,2012-12-02T20:23:00Z,28.8850,-90.0250,10.0,6.2,125.0,7.3,'11111222,11111222,11111222' 
LOOP,urn:ioos:station:wmo:lopl1:1,2012-12-02T20:38:00Z,28.8850,-90.0250,10.0,6.1,125.0,6.7,'11111222,11111222,11111222' 
LOOP,urn:ioos:station:wmo:lopl1:1,2012-12-02T20:53:00Z,28.8850,-90.0250,10.0,5.4,123.0,6.1,'11111222,11111222,11111222' 
LOOP,urn:ioos:station:wmo:lopl1:1,2012-12-02T21:08:00Z,28.8850,-90.0250,10.0,5.6,125.0,6.1,'11111222,11111222,11111222' 
LOOP,urn:ioos:station:wmo:lopl1:1,2012-12-02T21:23:00Z,28.8850,-90.0250,10.0,5.4,123.0,6.3,'11111222,11111222,11111222' 
LOOP,urn:ioos:station:wmo:lopl1:1,2012-12-02T21:38:00Z,28.8850,-90.0250,10.0,5.4,113.0,5.9,'11111222,11111222,11111222' 
LOOP,urn:ioos:station:wmo:lopl1:1,2012-12-02T21:53:00Z,28.8850,-90.0250,10.0,5.7,107.0,6.3,'11111222,11111222,11111222' 
LOOP,urn:ioos:station:wmo:lopl1:1,2012-12-02T22:08:00Z,28.8850,-90.0250,10.0,5.9,104.0,6.6,'11111222,11111222,11111222' 
LOOP,urn:ioos:station:wmo:lopl1:1,2012-12-02T22:23:00Z,28.8850,-90.0250,10.0,5.4,104.0,6.1,'11111222,11111222,11111222' 
LOOP,urn:ioos:station:wmo:lopl1:1,2012-12-02T22:38:00Z,28.8850,-90.0250,10.0,5.0,96.0,5.6,'11111222,11111222,11111222' 
LOOP,urn:ioos:station:wmo:lopl1:1,2012-12-02T22:53:00Z,28.8850,-90.0250,10.0,5.0,98.0,5.7,'11111222,11111222,11111222' 
LOOP,urn:ioos:station:wmo:lopl1:1,2012-12-02T23:08:00Z,28.8850,-90.0250,10.0,4.7,87.0,5.3,'11111222,11111222,11111222' 
LOOP,urn:ioos:station:wmo:lopl1:1,2012-12-02T23:23:00Z,28.8850,-90.0250,10.0,4.4,86.0,4.9,'11111222,11111222,11111222' 
LOOP,urn:ioos:station:wmo:lopl1:1,2012-12-02T23:38:00Z,28.8850,-90.0250,10.0,4.4,88.0,5.0,'11111222,11111222,11111222' 
LOOP,urn:ioos:station:wmo:lopl1:1,2012-12-02T23:53:00Z,28.8850,-90.0250,10.0,5.2,88.0,6.0,'11111222,11111222,11111222' 
LOOP,urn:ioos:station:wmo:lopl1:1,2012-12-03T00:13:00Z,28.8850,-90.0250,10.0,5.7,87.0,6.1,'11111222,11111222,11111222' 
LOOP,urn:ioos:station:wmo:lopl1:1,2012-12-03T00:28:00Z,28.8850,-90.0250,10.0,6.0,87.0,6.5,'11111222,11111222,11111222' 
LOOP,urn:ioos:station:wmo:lopl1:1,2012-12-03T00:43:00Z,28.8850,-90.0250,10.0,6.1,90.0,6.6,'11111222,11111222,11111222' 
LOOP,urn:ioos:station:wmo:lopl1:1,2012-12-03T00:58:00Z,28.8850,-90.0250,10.0,6.3,96.0,7.0,'11111222,11111222,11111222' 
LOOP,urn:ioos:station:wmo:lopl1:1,2012-12-03T01:13:00Z,28.8850,-90.0250,10.0,6.4,97.0,6.8,'11111222,11111222,11111222' 
LOOP,urn:ioos:station:wmo:lopl1:1,2012-12-03T01:28:00Z,28.8850,-90.0250,10.0,6.5,98.0,7.2,'11111222,11111222,11111222' 
LOOP,urn:ioos:station:wmo:lopl1:1,2012-12-03T01:43:00Z,28.8850,-90.0250,10.0,6.4,105.0,7.1,'11111222,11111222,11111222' 
LOOP,urn:ioos:station:wmo:lopl1:1,2012-12-03T01:58:00Z,28.8850,-90.0250,10.0,6.6,104.0,7.2,'11111222,11111222,11111222' 
LOOP,urn:ioos:station:wmo:lopl1:1,2012-12-03T02:13:00Z,28.8850,-90.0250,10.0,6.6,104.0,7.2,'11111222,11111222,11111222' 